Location: Unspecified
(49.0500°N, 0.0000°E)
Time: 15:07:47
(UTC+00:00)

OTV 5 (USA 277) - Pass Details

Date: 17 June 2019
Orbit: 299 x 335 km, 54.5° (Epoch: 13 July)

Event Time Altitude Azimuth Distance (km) Brightness Sun altitude
Exits shadow 00:05:40 84° 232° (SW) 339 ? -17.6°
Maximum altitude 00:05:45 89° 150° (SSE) 338 ? -17.6°
Drops below altitude 10° 00:08:33 10° 62° (ENE) 1,264 ? -17.6°
Enters shadow 01:08:00 -60° 252° (WSW) 11,451 ? -16.0°
